ECHOSTAR 16

Last updated on Sun Jun 21 2026 00:03:05 GMT+0000 (Coordinated Universal Time)

1 39008U 12065A 26171.37985043 -.00000286 00000+0 00000+0 0 9995 2 39008 0.0191 10.2647 0002049 82.9109 250.6586 1.00270642 49677
UTC large
Height (km)
Speed (km/s)
/
Latitude / Longitude
Inclination (degrees)
Orbital Period (minutes)
Azimuth
Elevation
Range (km)
Doppler Factor

Next 0 passes for location: London (51.5072 / 0.1276)

No passes found over London.
ECHOSTAR 16